Back to catalog

COSMOS 1823 DEB

AliveLEO
NORAD 39824·DEBRIS·🇷🇺 Russia

Launched Feb 20, 1987 from Plesetsk Cosmodrome

Loading…

Next Passes (next 24 hours)

TLE

StaleSource: Space-Track

Epoch: Aug 29, 2026, 08:53 UTC

1 39824U 87020EY  26241.37067427  .00000134  00000-0  10478-2 0  9994
2 39824  73.6145 237.1114 0032492   6.0872  61.9492 12.46321090976243

Track COSMOS 1823 DEB in real time with AllMySat

Download on the App Store